STARLETTE

Satellite information

Favourite Embed

Satellite Type and Status

PAYLOADIN ORBIT

Key statistics

Satellite STARLETTE at a glance.

Uptime

18410

Days in orbit

Revolutions

≈ 13.8

Per day

Orbit

LEO

Low Earth Orbit

Inclination

49.8

Latest

Satellite identification and parameters

Extended collection of information and parameters for STARLETTE.

Object identification

Identified? True

Debris? False

Object name: STARLETTE

International designator: 1975-010A

Object number (NORAD): 7646

Object ID (CCSDS): 7646

Country: FRANCE (FR)

Current information (Y/N): Y

RCS size: MEDIUM

Orbital parameters

Period: 104.171 minutes

Inclination: 49.8253 deg

SMA: 7333.721 km

Apoapsis: 1106.473 km

Periapsis: 804.699 km

RAAN: 43.2283 deg

Eccentricy: 0.0205744

Argument of periapsis: 349.2034 deg

Mean anomaly: 10.4478 deg

Mean motion: 13.82344065 rev/day

Mean motion (dot): -0.00000139 rev/day2

B* drag term: 0.0000032356 1/REarth

Two-line elements (TLE)

Creation date: July 3, 2025, 3:40 a.m.

Reference frame: TEME

Reference center: EARTH

Epoch: July 2, 2025, 10 p.m. UTC

TLE line 0: 0 STARLETTE

TLE line 1: 1 07646U 75010A 25183.91697406 -.00000139 00000-0 32356-5 0 9995

TLE line 2: 2 07646 49.8253 43.2283 0205744 349.2034 10.4478 13.82344065546224

Live tracking on map

Real-time ground track for satellite STARLETTE.

In-orbit conjunctions

A list of the most updated potential collisions computed for object STARLETTE.

Target Orbit TCA Probability of collision Miss distance Type
FENGYUN 1C DEB SSO 2025-06-16 18:05:42 0.0001111744 902.0 (m) DEBRIS
NIMBUS 2 DEB SSO 2024-07-30 13:01:35 0.0002111105 403.0 (m) DEBRIS

Associated space launch

Passive French satellite dedicated to geodetic and geophysical studies

STARLETTE was lifted into orbit during the mission ‘Diamant BP4 | Starlette’, on board a Diamant BP4 space rocket.

The launch took place on Feb. 6, 1975, 4:35 p.m. from Diamant Launch Area.

For more information about the launch, click the button.

Launch to space Diamant BP4 | Starlette
Diamant BP4 | Starlette

Agency: N/A

Status: Launch Successful

Launch date: Feb. 6, 1975, 4:35 p.m. UTC

Rocket: Diamant BP4

Launch pad: Diamant Launch Area

Location: Guiana Space Centre, French Guiana

...

Latest news about this satellite

There are no fresh news available about this satellite. Check back as we update our databases every day.


Newsletter sign-up

Weekly statistics, charts and insights to help you stay on top of the space industry.